Regional Weather Roundup
Issued by NWS Cleveland, OH

Home | Current Version | Previous Version | Graphics & Text | Print | Product List | Glossary On
Versions: 1 2 3 4 5 6 7 8 9 10 11 12 13 14 15 16 17 18 19 20 21 22 23 24 25 26 27 28 29 30 31 32 33 34 35 36 37 38 39 40 41 42 43 44 45 46 47 48 49 50
000
ASUS41 KCLE 222110
RWRCLE
OHIO REGIONAL WEATHER ROUNDUP
NATIONAL WEATHER SERVICE WILMINGTON, OH
500 PM EDT TUE JUL 22 2014

NOTE: "FAIR" INDICATES FEW OR NO CLOUDS BELOW 12,000 FEET WITH NO
SIGNIFICANT WEATHER AND/OR OBSTRUCTIONS TO VISIBILITY.

OHZ001>008-015>018-024>027-034-035-043-044-222200-
   NORTHWEST OHIO

CITY           SKY/WX    TMP DP  RH WIND       PRES   REMARKS
DEFIANCE       MOSUNNY   90  66  45 SW14      30.01F HX  92
FINDLAY        MOSUNNY   89  66  46 SW12      30.02F HX  91
TOLEDO EXPRESS SUNNY     90  65  43 SW12      30.00F HX  92
TOLEDO METCALF SUNNY     91  63  39 SW15G22   30.01F HX  92
LIMA           SUNNY     89  64  43 SW15      30.05S HX  90
$$

OHZ009>014-019>023-028>033-038-089-222200-
   NORTHEAST OHIO

CITY           SKY/WX    TMP DP  RH WIND       PRES   REMARKS
CLE-HOPKINS    MOSUNNY   87  66  49 SW12      30.04F
CLE-LAKEFRONT  SUNNY     84  69  60 N3        30.01F
CUY CO. ARPT   MOSUNNY   86  72  62 NW7       30.04F HX  92
LORAIN-ELYRIA  SUNNY     91  66  43 SW13      30.03F HX  93
ASHTABULA      MOSUNNY   86  66  51 S12       30.03F
AKRON-CANTON   MOSUNNY   87  66  49 SW9       30.06F
WOOSTER        MOSUNNY   87  69  54 SW9       30.06F HX  91
MANSFIELD      MOSUNNY   86  66  51 S12       30.07F
YOUNGSTOWN     PTSUNNY   86  67  52 S6        30.05F
$$

OHZ042-051>053-060>062-070>072-077>081-222200-
  SOUTHWEST OHIO

CITY           SKY/WX    TMP DP  RH WIND       PRES   REMARKS
CINC-COVINGTON MOSUNNY   90  65  43 W9G16     30.06F HX  92
CINC-LUNKEN    MOSUNNY   91  68  46 W7        30.03F HX  95
HAMILTON       SUNNY     91  68  46 VRB6      30.05F HX  95
DAYTON         MOSUNNY   89  68  49 SW12      30.07F HX  93
WRIGHT-PAT AFB SUNNY     89  67  47 SW10      30.05S HX  92
DAYTON GENERAL MOSUNNY   89  67  47 W12       30.05F HX  92
WILMINGTON     MOSUNNY   89  69  51 VRB3      30.06F HX  93
$$

OHZ036-037-039>041-045>050-054>059-063>069-073>076-082>088-222200-
  CENTRAL AND SOUTHEAST OHIO

CITY           SKY/WX    TMP DP  RH WIND       PRES   REMARKS
COLUMBUS       MOSUNNY   91  67  44 SW13      30.04F HX  94
OSU AIRPORT    SUNNY     89  68  49 W13       30.05F HX  93
BOLTON FIELD   PTSUNNY   88  73  62 SW7       30.06F HX  96
RICKENBACK AFB MOSUNNY   90  64  41 S8        30.05S HX  91
NEWARK         SUNNY     87  68  52 SW7       30.05F HX  90
MARION         MOSUNNY   87  66  49 SW9       30.05F
LANCASTER      PTSUNNY   84  70  62 SW3       30.06F
ZANESVILLE     PTSUNNY   85  69  58 S7        30.06F
NEW PHILLY     MOSUNNY   86  70  58 SW3       30.06F HX  90
$$



USA.gov is the U.S. government's official web portal to all federal, state and local government web resources and services.